Location: Kędzierzyn-Koźle
(50.3448°N, 18.2086°E)
Time: 10:44:52
(UTC+02:00)

ISS - Visible Passes

Search period start: 22 September 2018 00:00
Search period end: 02 October 2018 00:00
Orbit: 403 x 408 km, 51.6° (Epoch: 22 September)

Date Brightness Start Highest point End Pass type
(mag) Time Alt. Az. Time Alt. Az. Time Alt. Az.
22 Sep -1.9 20:27:32 10° SSW 20:28:50 18° S 20:28:50 18° S visible
23 Sep -1.9 19:36:32 10° S 19:38:33 15° SE 19:39:35 14° ESE visible
23 Sep -1.5 21:11:18 10° WSW 21:12:17 18° SW 21:12:17 18° SW visible
24 Sep -3.4 20:19:36 10° SW 20:22:43 42° SSE 20:22:49 42° SSE visible
25 Sep -2.7 19:28:03 10° SSW 19:30:56 28° SSE 19:33:12 14° E visible
25 Sep -2.3 21:03:53 10° WSW 21:05:53 34° WSW 21:05:53 34° WSW visible
26 Sep -3.9 20:11:59 10° WSW 20:15:16 70° SSE 20:16:08 44° E visible
26 Sep -0.5 21:48:32 10° W 21:48:48 12° W 21:48:48 12° W visible
27 Sep -3.4 19:20:10 10° SW 19:23:22 49° SSE 19:26:17 12° E visible
27 Sep -2.7 20:56:32 10° W 20:58:57 44° WNW 20:58:57 44° WNW visible
28 Sep -3.8 20:04:32 10° W 20:07:50 82° NNW 20:09:02 37° ENE visible
28 Sep -0.6 21:41:11 10° WNW 21:41:42 14° WNW 21:41:42 14° WNW visible
29 Sep -3.8 19:12:33 10° WSW 19:15:52 79° SSE 19:19:03 11° ENE visible
29 Sep -2.9 20:49:10 10° W 20:51:43 48° WNW 20:51:43 48° WNW visible
30 Sep -3.7 19:57:07 10° W 20:00:25 69° N 20:01:42 34° ENE visible
30 Sep -0.7 21:33:43 10° WNW 21:34:21 15° WNW 21:34:21 15° WNW visible
01 Oct -3.7 19:05:04 10° W 19:08:22 77° N 19:11:39 10° ENE visible
01 Oct -3.0 20:41:42 10° WNW 20:44:18 51° WNW 20:44:18 51° WNW visible
